Satellite: AENEAS
Catalog number: 38760
Epoch time:      12306.36056343
Element set:    0054
Inclination:      064.6729 deg
RA of node:       252.1711 deg
Eccentricity:    0.0217993
Arg of perigee:   275.8576 deg
Mean anomaly:     081.7617 deg
Mean motion:   14.79457199 rev/day
Decay rate:      6.658e-05 rev/day^2
Epoch rev:           00715
Checksum:              331

Satellite: CSSWE-D
Catalog number: 38761
Epoch time:      12306.35798675
Element set:    0050
Inclination:      064.6739 deg
RA of node:       252.1643 deg
Eccentricity:    0.0219235
Arg of perigee:   275.9195 deg
Mean anomaly:     081.6918 deg
Mean motion:   14.79409121 rev/day
Decay rate:      4.133e-05 rev/day^2
Epoch rev:           00715
Checksum:              314

Satellite: CXBN-E
Catalog number: 38762
Epoch time:      12306.35620411
Element set:    0049
Inclination:      064.6703 deg
RA of node:       252.1550 deg
Eccentricity:    0.0218179
Arg of perigee:   275.8294 deg
Mean anomaly:     081.7824 deg
Mean motion:   14.79492911 rev/day
Decay rate:      4.191e-05 rev/day^2
Epoch rev:           00715
Checksum:              298

Satellite: OBJECT F
Catalog number: 38763
Epoch time:      12306.35611363
Element set:    0046
Inclination:      064.6731 deg
RA of node:       252.1540 deg
Eccentricity:    0.0219566
Arg of perigee:   276.0021 deg
Mean anomaly:     081.6004 deg
Mean motion:   14.79454679 rev/day
Decay rate:      3.851e-05 rev/day^2
Epoch rev:           00699
Checksum:              294

Satellite: CINEMA-G
Catalog number: 38764
Epoch time:      12306.35566432
Element set:    0046
Inclination:      064.6722 deg
RA of node:       252.1480 deg
Eccentricity:    0.0219177
Arg of perigee:   275.9605 deg
Mean anomaly:     081.6507 deg
Mean motion:   14.79480764 rev/day
Decay rate:      4.241e-05 rev/day^2
Epoch rev:           00715
Checksum:              304

Satellite: CP5
Catalog number: 38765
Epoch time:      12306.44271135
Element set:    0046
Inclination:      064.6737 deg
RA of node:       251.8638 deg
Eccentricity:    0.0218746
Arg of perigee:   275.7675 deg
Mean anomaly:     193.8868 deg
Mean motion:   14.79573998 rev/day
Decay rate:      3.983e-05 rev/day^2
Epoch rev:           00716
Checksum:              366

Satellite: RAIKO
Catalog number: 38852
Epoch time:      12306.89293625
Element set:      26
Inclination:      051.6611 deg
RA of node:       157.0864 deg
Eccentricity:    0.0018848
Arg of perigee:   223.3508 deg
Mean anomaly:     136.6000 deg
Mean motion:   15.53250527 rev/day
Decay rate:     2.7483e-04 rev/day^2
Epoch rev:             432
Checksum:              284

Satellite: FITSAT 1
Catalog number: 38853
Epoch time:      12306.88956816
Element set:      28
Inclination:      051.6480 deg
RA of node:       157.0628 deg
Eccentricity:    0.0015249
Arg of perigee:   237.3513 deg
Mean anomaly:     122.5888 deg
Mean motion:   15.53650536 rev/day
Decay rate:     3.6941e-04 rev/day^2
Epoch rev:             437
Checksum:              316

Satellite: TechEdSat
Catalog number: 38854
Epoch time:      12306.81817234
Element set:      30
Inclination:      051.6472 deg
RA of node:       157.3350 deg
Eccentricity:    0.0015127
Arg of perigee:   234.8088 deg
Mean anomaly:     125.1480 deg
Mean motion:   15.54419795 rev/day
Decay rate:     4.6636e-04 rev/day^2
Epoch rev:             436
Checksum:              291

Satellite: F 1
Catalog number: 38855
Epoch time:      12306.75500478
Element set:      31
Inclination:      051.6463 deg
RA of node:       157.6570 deg
Eccentricity:    0.0012899
Arg of perigee:   242.0038 deg
Mean anomaly:     117.9372 deg
Mean motion:   15.54323784 rev/day
Decay rate:     4.8543e-04 rev/day^2
Epoch rev:             424
Checksum:              299

Satellite: WeWish
Catalog number: 38856
Epoch time:      12306.80798901
Element set:      40
Inclination:      051.6475 deg
RA of node:       157.2674 deg
Eccentricity:    0.0019568
Arg of perigee:   225.4801 deg
Mean anomaly:     134.4560 deg
Mean motion:   15.55680274 rev/day
Decay rate:     7.0080e-04 rev/day^2
Epoch rev:             425
Checksum:              298



Read previous mail | Read next mail


 02.05.2026 03:53:57lGo back Go up